Regional Weather Roundup
Issued by NWS

Home | Current Version | Previous Version | Text Only | Print | Product List | Glossary Off
Versions: 1 2 3 4 5 6 7 8 9 10 11 12 13 14 15 16 17 18 19 20 21 22 23 24 25 26 27 28 29 30 31 32 33 34 35 36 37 38 39 40 41 42 43 44 45 46 47 48 49 50

000
ASUS43 KLOT 241509
RWRIL

ILLINOIS REGIONAL WEATHER ROUNDUP
NATIONAL WEATHER SERVICE CHICAGO/ROMEOVILLE IL
1000 AM CDT SUN SEP 24 2017

NOTE: "FAIR" INDICATES FEW OR NO CLOUDS BELOW 12,000 FEET WITH NO
SIGNIFICANT WEATHER AND/OR OBSTRUCTIONS TO VISIBILITY.

* THESE STATIONS ARE NOT UNDER NWS QUALITY CONTROL. THEY ALSO MAY NOT
  REPORT WEATHER SUCH AS PRECIPITATION OR FOG.

ILZ001-002-007-009-015-016-024-241600-
NORTHWEST ILLINOIS

CITY           SKY/WX    TMP DP  RH WIND       PRES   REMARKS
MOLINE         SUNNY     79  63  57 S6        30.05S HX  80
STERLING*      SUNNY     81  64  56 VRB3      30.08F HX  82
SAVANNA*       SUNNY     80  65  59 SE8       30.06F HX  82
$$

ILZ003-004-008-010-011-017-018-241600-
NORTH CENTRAL ILLINOIS

CITY           SKY/WX    TMP DP  RH WIND       PRES   REMARKS
ROCKFORD       SUNNY     80  64  58 S7        30.10S HX  82
FREEPORT*      SUNNY     79  63  56 S7        30.11S HX  81
ROCHELLE*      SUNNY     80  64  57 S7        30.10S HX  82
DE KALB*       SUNNY     79  65  62 S6        30.12S HX  81
PERU*          SUNNY     79  63  57 S5        30.10S HX  80
$$

ILZ005-006-012>014-019>023-241600-
NORTHEAST ILLINOIS

CITY           SKY/WX    TMP DP  RH WIND       PRES   REMARKS
CHICAGO-OHARE  SUNNY     84  63  49 SW3       30.09S HX  85
CHICAGO-MIDWAY SUNNY     83  64  52 SW6       30.10S HX  84
AURORA         SUNNY     80  66  62 S7        30.11S HX  82
LANSING*       SUNNY     81  67  62 SE5       30.11S HX  83
JOLIET*        SUNNY     81  67  63 CALM      30.11S HX  83
WAUKEGAN       SUNNY     82  67  60 S7        30.09S HX  84
DUPAGE AIRPORT SUNNY     82  66  58 S6        30.10S HX  84
KANKAKEE*      SUNNY     80  65  61 SE5       30.12S HX  82
WHEELING       SUNNY     83  65  54 SW3       30.11S HX  85
MORRIS*        SUNNY     80  66  61 S5        30.09S HX  82
ROMEOVILLE*    SUNNY     81  65  58 S3        30.11S HX  83
NORTHERLY ISL    N/A     78  67  68 SE3         N/A  HX  80
$$

LMZ740>746-241600-
SOUTHERN LAKE MICHIGAN

STATION/POSITION SKY/WX   TEMP    WIND        PRES    VSBY  WAVE
                          AIR SEA DIR/SP/G                  HT/PER
                          (F)     (DEG/KT/KT) (MB)    (MI)  (FT/S)
SOUTHERN BUOY              72 70  160/ 10/ 10 1019.0          1/ 3
WILMETTE HARBOR            73 71  140/  4/  6   N/A           1
HARRISON CRIB              75     150/  9/ 10   N/A
BURNHAM HARBOR             78                   N/A
CALUMET HARBOR             80     200/  3/  4 1018.7R
BURNS HARBOR               81     160/  5/ 10 1020.0S
MICHIGAN CITY              79     140/  9/ 10   N/A
MICHIGAN CITY 6N           76 72  170/  6/  6   N/A           0
ST. JOSEPH                 75 72  180/  6/  6 1019.4          1
$$

ILZ025>027-034>036-040-047-049-050-058-095>099-241600-
WEST-CENTRAL ILLINOIS

CITY           SKY/WX    TMP DP  RH WIND       PRES   REMARKS
QUINCY         SUNNY     81  65  58 S10       30.05S HX  83
GALESBURG*     SUNNY     76  64  66 SE5       30.08S
MACOMB*        SUNNY     78  64  61 SE3       30.08S HX  80
JACKSONVILLE*  SUNNY     81  66  60 S7        30.07F HX  83
PITTSFIELD*    SUNNY     81  67  62 S5        30.08S HX  83
$$

ILZ028>032-037-038-041>044-048-051>054-059>061-241600-
CENTRAL ILLINOIS

CITY           SKY/WX    TMP DP  RH WIND       PRES   REMARKS
PONTIAC        SUNNY     81  67  62 S8        30.11S HX  83
BLOOMINGTON    SUNNY     79  66  64 S7        30.12S HX  81
DECATUR        SUNNY     79  65  62 SE5       30.10S HX  81
PEORIA         SUNNY     81  67  62 S8        30.08S HX  83
LACON*         SUNNY     81  65  58 S6        30.08S HX  83
LINCOLN*       SUNNY     81  67  61 S6        30.09S HX  84
SPRINGFIELD    SUNNY     84  67  56 S7        30.08S HX  86
TAYLORVILLE    SUNNY     83  65  55 S6        30.09S HX  85
$$

ILZ033-039-045-046-055>057-062-063-241600-
EAST-CENTRAL ILLINOIS

CITY           SKY/WX    TMP DP  RH WIND       PRES   REMARKS
CHAMPAIGN      SUNNY     82  63  52 VRB3      30.11S HX  83
RANTOUL*       SUNNY     81  67  60 CALM      30.11S HX  84
MATTOON        SUNNY     81  65  58 SE7       30.09S HX  83
PARIS*         SUNNY     83  65  54 E6        30.11S HX  85
$$

ILZ079-100>102-241600-
SOUTHWEST ILLINOIS

CITY           SKY/WX    TMP DP  RH WIND       PRES   REMARKS
ALTON          SUNNY     79  68  69 SE8       30.08R HX  81
BELLEVILLE     SUNNY     80  67  63 CALM      30.06S HX  83
CAHOKIA*       SUNNY     83  67  58 VRB5      30.06S HX  85
SPARTA*        SUNNY     81  67  63 CALM      30.08S HX  83
$$

ILZ064>066-069>071-074>076-080>082-084>086-088>090-092>094-241600-
SOUTH-CENTRAL ILLINOIS

CITY           SKY/WX    TMP DP  RH WIND       PRES   REMARKS
CARBONDALE     SUNNY     80  70  71 E3        30.06S HX  83
CAIRO*         SUNNY     79  71  77 CALM      30.05S HX  81
EFFINGHAM*     SUNNY     83  64  52 E3        30.10F HX  85
MARION         SUNNY     82  68  61 E7        30.07S HX  85
MT. VERNON       N/A     80  67  64 CALM      30.08S HX  82
CENTRALIA*     SUNNY     85  68  57 S5        30.07S HX  88
SALEM*         SUNNY     82  66  57 CALM      30.08F HX  84
METROPOLIS*    RAIN      82  70  67 SE3       30.06F HX  85
$$

ILZ067-068-072-073-078-083-087-091-241600-
SOUTHEAST ILLINOIS

CITY           SKY/WX    TMP DP  RH WIND       PRES   REMARKS
LAWRENCEVILLE  SUNNY     81  68  64 NE3       30.09S HX  84
FLORA*         SUNNY     82  66  57 CALM      30.08F HX  85
FAIRFIELD*     SUNNY     83  63  49 CALM      30.06F HX  84
HARRISBURG*    SUNNY     82  68  62 E5        30.07S HX  85
ROBINSON*      SUNNY     79  67  66 E3        30.10F HX  81
CARMI*         SUNNY     82  67  60 SE5       30.07S HX  84
$$

ABBREVIATIONS USED IN REMARKS
   TC - TEMPERATURE IN CELSIUS
  WCI - WIND CHILL INDEX
   HX - HEAT INDEX
  VSB - VISIBILITY
$$




USA.gov is the U.S. government's official web portal to all federal, state and local government web resources and services.